Station FPTM4 - Fairport, MI Image indicating link to RSS feed of recent meteorological observations for station FPTM4


Conditions at FPTM4 as of
(3:40 am EDT)
0740 GMT on 09/03/2026:
     

Click on the graph icon in the table below to see a time series plot of the last five days of that observation.

5-day plot - Wind Direction Wind Direction (WDIR): NE ( 40 deg true )
5-day plot - Wind Speed Wind Speed (WSPD): 5.1 kts
5-day plot - Wind Gust Wind Gust (GST): 7.0 kts
5-day plot - Air Temperature Air Temperature (ATMP): 68.5 °F
5-day plot - Wind Speed at 10 Meters Wind Speed at 10 meters (WSPD10M): 3.9 kts
5-day plot - Wind Speed at 20 Meters Wind Speed at 20 meters (WSPD20M): 5.8 kts
5-day plot -  Wind Speed, Wind Gust and Atmospheric Pressure Combined plot of Wind Speed, Gust, and Air Pressure
Previous observations
TIME
(EDT)
5-day plot - Wind Direction
WDIR
 
5-day plot - Wind Speed
WSPD
kts
5-day plot - Wind Gust
GST
kts
5-day plot - Wave Height
WVHT
ft
5-day plot - Dominant Wave Period
DPD
sec
5-day plot - Average Wave Period
APD
sec
5-day plot - Mean Wave Direction
MWD
 
5-day plot - Atmospheric Pressure
PRES
in
5-day plot - Pressure Tendency
PTDY
in
5-day plot - Air Temperature
ATMP
°F
5-day plot - Water Temperature
WTMP
°F
5-day plot - Dew Point
DEWP
°F
5-day plot - Salinity
SAL
psu
5-day plot - Visibility
VIS
nmi
5-day plot - Tide (above MLLW)
TIDE
ft
2026-09-03 03:30 am NE 5.1------- 68.5-----
2026-09-03 03:20 am NE 5.1 7.0------ 68.4-----
2026-09-03 03:10 am NE 5.1 7.0------ 68.0-----
2026-09-03 03:00 am NE 5.1 8.0------ 67.8-----
2026-09-03 02:50 amNNE 6.0 7.0------------
2026-09-03 02:40 amNNE 5.1 7.0------ 67.8-----
2026-09-03 02:30 amNNE 6.0 8.0------ 67.8-----
2026-09-03 02:20 am NE 6.0 7.0------ 68.2-----
2026-09-03 02:10 amNNE 6.0 7.0------ 68.4-----
2026-09-03 02:00 amNNE 6.0 6.0------ 68.0-----
2026-09-03 01:50 am NE 6.0 7.0------ 68.5-----
2026-09-03 01:40 am NE 5.1 6.0------ 68.7-----
2026-09-03 01:30 am NE 5.1 6.0------ 68.5-----
2026-09-03 01:20 amNNE 5.1 6.0------ 68.5-----
2026-09-03 01:10 amNNE 5.1 5.1------ 68.7-----
2026-09-03 01:00 amNNE-------- 68.9-----
2026-09-03 12:50 amNNE 4.1 4.1------ 69.3-----
2026-09-03 12:40 amNNE 4.1------- 69.8-----
2026-09-03 12:30 am NE 4.1 5.1------ 70.2-----
2026-09-03 12:20 amNNE 4.1 6.0------ 70.5-----
2026-09-03 12:10 amNNE 4.1 5.1------ 70.3-----
2026-09-03 12:00 amNNE 4.1 4.1------ 70.5-----
2026-09-02 11:50 pmNNE 2.9 5.1------ 70.7-----
2026-09-02 11:40 pmNNE 4.1 5.1------ 70.7-----
2026-09-02 11:30 pmNNE 4.1 5.1------ 70.5-----
2026-09-02 11:20 pmNNE 4.1 5.1------ 70.9-----
2026-09-02 11:10 pmNNE 4.1 4.1------ 70.5-----
2026-09-02 11:00 pm NE 1.9 2.9------ 70.9-----
2026-09-02 10:50 pm NE 2.9 4.1------ 71.4-----
2026-09-02 10:40 pm NE 2.9 4.1------ 71.8-----
2026-09-02 10:30 pm NE 2.9 4.1------ 71.8-----
2026-09-02 10:20 pm NE 2.9 5.1------ 72.3-----
2026-09-02 10:10 pm NE 5.1 5.1------ 72.7-----
2026-09-02 10:00 pmNNE 5.1 5.1------ 72.5-----
2026-09-02 09:50 pm N 2.9 6.0------ 72.9-----
2026-09-02 09:40 pm N 4.1 5.1------ 73.0-----
2026-09-02 09:30 pmNNE 4.1 8.0------ 73.2-----
2026-09-02 09:20 pmNNE 5.1 7.0------ 73.6-----
2026-09-02 09:10 pmNNE 5.1 6.0------------
2026-09-02 09:00 pmNNE 4.1 7.0------ 73.8-----
2026-09-02 08:50 pm- 0.0 1.9------ 76.6-----
2026-09-02 08:40 pm S 1.9 2.9------ 77.0-----
2026-09-02 08:30 pm- 0.0 2.9------ 77.4-----
2026-09-02 08:20 pm SE 1.9 4.1------ 78.4-----
2026-09-02 08:10 pm S 2.9 4.1------ 78.8-----
2026-09-02 08:00 pmSSE 2.9 6.0------ 78.8-----
2026-09-02 07:50 pmSSE 5.1 5.1------ 78.8-----
2026-09-02 07:40 pmSSE 4.1 5.1------ 78.6-----
2026-09-02 07:30 pm S 4.1 8.0------ 78.6-----
2026-09-02 07:20 pm S 7.0------- 78.6-----
2026-09-02 07:10 pm S 6.0 7.0------ 78.6-----
2026-09-02 07:00 pm S 7.0 8.9------ 78.6-----
2026-09-02 06:50 pm S 7.0 8.9------ 78.3-----
2026-09-02 06:40 pm S 7.0 9.9------ 78.8-----
2026-09-02 06:30 pm S 8.0 9.9------ 78.4-----
2026-09-02 06:20 pm S 7.0------- 78.4-----
2026-09-02 06:10 pm S 7.0 8.0------ 78.4-----
2026-09-02 06:00 pm S 6.0 7.0------ 79.0-----
2026-09-02 05:50 pm S 6.0 7.0------ 79.0-----
2026-09-02 05:40 pm S 5.1 5.1------ 79.7-----
2026-09-02 05:30 pmSSW 2.9 4.1------ 79.9-----
2026-09-02 05:20 pmSSW 4.1 7.0------ 79.7-----
2026-09-02 05:10 pmSSW 6.0 7.0------ 79.9-----
2026-09-02 05:00 pmSSW 6.0 7.0------ 79.5-----
2026-09-02 04:50 pmSSW 6.0 7.0------ 79.5-----
2026-09-02 04:40 pmSSW 5.1 7.0------ 79.5-----
2026-09-02 04:30 pmSSW 6.0 7.0------ 80.2-----
2026-09-02 04:20 pm SW 4.1 6.0------ 82.2-----
2026-09-02 04:10 pm SW 5.1------- 81.7-----
2026-09-02 04:00 pmSSW 7.0 8.0------ 79.5-----
2026-09-02 03:50 pmSSW 8.0------- 80.1-----
2026-09-02 03:40 pm SW 7.0 8.0------ 83.7-----
2026-09-02 03:30 pmWSW 7.0 9.9------ 83.3-----
2026-09-02 03:20 pmWSW 8.9 11.1------ 82.6-----
2026-09-02 03:10 pm W 8.0 9.9------ 82.6-----
2026-09-02 03:00 pm SW 7.0 9.9------ 82.6-----
2026-09-02 02:50 pmWSW 7.0 8.0------ 81.9-----
2026-09-02 02:40 pm SW 8.0 9.9------ 80.8-----
2026-09-02 02:30 pmWSW 8.9 11.1------ 80.2-----
2026-09-02 02:20 pmWSW 11.1 13.0------ 79.9-----
2026-09-02 02:10 pmWSW 11.1 14.0------ 79.3-----
2026-09-02 02:00 pmWSW 9.9 13.0------ 79.5-----
2026-09-02 01:50 pmWSW 12.0 15.9------ 78.8-----
2026-09-02 01:40 pmWSW 14.0 15.9------ 78.4-----
2026-09-02 01:30 pmWSW 9.9 15.0------ 78.8-----
2026-09-02 01:20 pmWSW 9.9 12.0------ 78.6-----
2026-09-02 01:10 pm SW 9.9 12.0------ 78.4-----
2026-09-02 01:00 pm SW 11.1 12.0------ 78.1-----
2026-09-02 12:50 pm SW 9.9 13.0------------
2026-09-02 12:40 pmWSW 9.9 11.1------ 77.7-----
2026-09-02 12:30 pm W 8.9 11.1------ 77.7-----
2026-09-02 12:20 pm W 8.9 9.9------ 77.5-----
2026-09-02 12:10 pm W 8.9 12.0------ 77.7-----
2026-09-02 12:00 pm W 11.1 13.0------ 77.7-----
2026-09-02 11:50 amWSW 8.0 8.9------ 77.7-----
2026-09-02 11:40 am SW 8.9 11.1------ 76.1-----
2026-09-02 11:30 amWSW 6.0 13.0------ 76.8-----
2026-09-02 11:20 amWSW-------- 76.1-----
2026-09-02 11:10 am SW 12.0 14.0------ 75.4-----
2026-09-02 11:00 amSSW 12.0 13.0------ 74.5-----
2026-09-02 10:50 am SW 8.9 12.0------ 75.7-----
2026-09-02 10:40 am SW 6.0------- 75.0-----
2026-09-02 10:30 am SW 6.0 8.9------ 74.3-----
2026-09-02 10:20 am SW 8.0 8.9------ 73.9-----
2026-09-02 10:10 amWSW 6.0 8.0------ 73.4-----
2026-09-02 10:00 am W 5.1 6.0------ 73.4-----
2026-09-02 09:50 am W 6.0 8.9------ 73.4-----
2026-09-02 09:40 am W 7.0 9.9------ 73.6-----
2026-09-02 09:30 amWSW 7.0 8.9------ 73.8-----
2026-09-02 09:20 am W 7.0 11.1------ 73.8-----
2026-09-02 09:10 amWNW 8.9 9.9------ 73.4-----
2026-09-02 09:00 amNNW 2.9 4.1------ 71.4-----
2026-09-02 08:50 am N 2.9 5.1------ 71.2-----
2026-09-02 08:40 amESE 7.0 13.0------ 72.7-----
2026-09-02 08:30 amESE 8.9 14.0------ 71.6-----
2026-09-02 08:20 amENE 5.1 9.9------ 72.7-----
2026-09-02 08:10 am SW 9.9 15.0------ 74.7-----
2026-09-02 08:00 amWSW 14.0 17.1------ 75.2-----
2026-09-02 07:50 amWSW 14.0 17.1------ 75.2-----
2026-09-02 07:40 amWSW 14.0 21.0------ 75.7-----
2026-09-02 07:30 am W 18.1 20.0------ 76.1-----
2026-09-02 07:20 am W 15.0 17.1------ 75.7-----
2026-09-02 07:10 am W 13.0 15.0------ 75.7-----
2026-09-02 07:00 am W 9.9 9.9------ 75.6-----
2026-09-02 06:50 amWNW 5.1 5.1------ 74.1-----
2026-09-02 06:40 amWNW 5.1 7.0------ 74.5-----
2026-09-02 06:30 am NW 5.1 6.0------ 74.7-----
2026-09-02 06:20 am NW-------- 74.1-----
2026-09-02 06:10 amWNW 1.9 2.9------ 73.0-----
2026-09-02 06:00 am NW 1.9 2.9------ 73.0-----
2026-09-02 05:50 amNNW 1.9 2.9------ 73.6-----
2026-09-02 05:40 amWNW 1.9 5.1------ 74.1-----
2026-09-02 05:30 am NW 4.1 6.0------ 74.1-----
2026-09-02 05:20 am NW 4.1 4.1------ 73.6-----
2026-09-02 05:10 am NW 1.9 2.9------ 73.4-----
2026-09-02 05:00 amWNW 1.9 2.9------ 73.6-----
2026-09-02 04:50 am NW 1.9 2.9------ 73.6-----
2026-09-02 04:40 am- 0.0 2.9------ 73.0-----
2026-09-02 04:30 am N 1.0 2.9------ 72.1-----
2026-09-02 04:20 am- 0.0 0.0------ 71.8-----
2026-09-02 04:10 am- 0.0 0.0------ 71.4-----
2026-09-02 04:00 am- 0.0 0.0------ 71.4-----
2026-09-02 03:50 am- 0.0 0.0------ 71.1-----